Location: Blackie
(50.6050°N, 113.6230°W)
Time: 11:04:41
(UTC+00:00)

N. Korean satellite - Pass Details

Date: 05 December 2021
Orbit: 447 x 490 km, 97.3° (Epoch: 27 January)

Event Time Altitude Azimuth Distance (km) Brightness Sun altitude
Rises 13:43:25 0° 4° (N) 2,472 10.0 -14.4°
Reaches altitude 10° 13:45:38 10° 352° (N) 1,591 8.9 -14.1°
Maximum altitude 13:48:34 28° 292° (WNW) 883 7.3 -13.6°
Drops below altitude 10° 13:51:29 10° 232° (SW) 1,575 8.8 -13.2°
Sets 13:53:41 0° 220° (SW) 2,442 9.9 -12.8°
